GCOM-W1 (SHIZUKU)

Last updated on Sun Apr 12 2026 00:03:41 GMT+0000 (Coordinated Universal Time)

1 38337U 12025A 26101.43348748 .00000444 00000+0 10861-3 0 9995 2 38337 98.2093 43.0131 0001113 80.8187 33.7671 14.57147025739313
UTC large
Height (km)
Speed (km/s)
/
Latitude / Longitude
Inclination (degrees)
Orbital Period (minutes)
Azimuth
Elevation
Range (km)
Doppler Factor

Next 0 passes for location: London (51.5072 / 0.1276)

Sorry there are no passes over London.
GCOM-W1 (SHIZUKU)